{"data":{"norad_id":65306,"intl_designator":"2025-187B","name":"HULIANWANG DIGUI-74","alt_names":[],"object_type":"PAYLOAD","status":"ACTIVE","operator":null,"country":"PRC","launch_date":"2025-08-25","launch_site_code":"WSC","launch_vehicle":null,"mission":null,"orbit_class":"UNKNOWN","rcs_meters":null,"size_class":null,"mass_kg":null,"dimensions":null,"purposes":[],"wikipedia_slug":null,"has_3d_model":false,"image_url":null,"decayed_at":null,"tle_current":{"epoch":"2026-05-25T04:34:47.070912Z","epoch_age_seconds":55791,"freshness":"FRESH","line1":"1 65306U 25187B   26145.19082258 -.00000095  00000+0  62559-4 0  9991","line2":"2 65306  50.0100 288.2991 0000626  97.8919 262.2024 13.29320818 36648","mean_motion":13.29320818,"eccentricity":6.26e-5,"inclination_deg":50.01,"raan_deg":288.2991,"arg_perigee_deg":97.8919,"mean_anomaly_deg":262.2024,"bstar":6.2559e-5,"rev_number":3664,"period_min":108.32599478631,"perigee_km":1148.8549151262,"apogee_km":1149.7973535106,"semimajor_km":7527.4631343184,"source":"CELESTRAK","updated_at":"2026-05-25T13:38:05.298815Z"}}}